DW0000 Weather Reports


time (UTC)temp
F
wind
direction
speed
knots
gust
knots
rain 1hr
in
rain 24hr
in
rain mn
in
humidity
%
barometer
mb
20211208125419 63 162 0.0 0.0 0.00 0.00 0.00 98 1020.0
20211208124420 63 162 0.0 0.0 0.00 0.00 0.00 98 1020.1
20211208123921 63 162 0.0 0.0 0.00 0.00 0.00 98 1020.1
20211208123420 63 162 0.0 0.0 0.00 0.00 0.00 98 1020.2
20211208122420 63 162 0.9 0.9 0.00 0.00 0.00 98 1020.4
20211208121920 63 162 0.0 0.9 0.00 0.00 0.00 98 1020.4
20211208120927 63 162 0.9 1.7 0.00 0.00 0.00 98 1020.5
20211208115920 63 162 0.9 0.9 0.00 0.00 0.00 98 1020.6
20211208115419 63 162 0.9 1.7 0.00 0.00 0.00 97 1020.6
20211208114921 63 162 0.9 1.7 0.00 0.00 0.00 97 1020.7
20211208113420 63 162 0.0 1.7 0.00 0.00 0.00 97 1020.9
20211208112419 63 162 0.0 0.0 0.00 0.00 0.00 96 1020.9
20211208111922 63 162 0.9 1.7 0.00 0.00 0.00 96 1021.0
20211208111420 63 162 0.9 0.9 0.00 0.00 0.00 96 1021.0
20211208110921 63 162 0.0 0.0 0.00 0.00 0.00 96 1021.0
20211208110420 63 162 0.0 0.9 0.00 0.00 0.00 96 1021.0
20211208105420 63 162 0.9 1.7 0.00 0.00 0.00 96 1020.9
20211208104422 63 162 0.9 1.7 0.00 0.00 0.00 95 1021.0
20211208103921 64 162 0.9 1.7 0.00 0.00 0.00 95 1021.1
20211208103420 64 162 0.9 1.7 0.00 0.00 0.00 95 1021.0
20211208102921 64 162 0.0 0.9 0.00 0.00 0.00 95 1021.0
20211208102420 64 162 0.9 1.7 0.00 0.00 0.00 95 1021.0
20211208101920 64 162 0.9 1.7 0.00 0.00 0.00 95 1021.1
20211208101421 64 162 0.9 1.7 0.00 0.00 0.00 95 1021.1
20211208100921 64 162 0.9 1.7 0.00 0.00 0.00 95 1021.0
20211208100420 64 162 0.9 1.7 0.00 0.00 0.00 95 1021.1
20211208095921 64 162 0.0 0.9 0.00 0.00 0.00 94 1021.1
20211208095420 64 162 0.9 1.7 0.00 0.00 0.00 94 1021.2
20211208094921 64 162 0.9 1.7 0.00 0.00 0.00 94 1021.2
20211208094419 64 162 0.9 2.6 0.00 0.00 0.00 94 1021.1
20211208093420 64 162 0.0 0.0 0.00 0.00 0.00 94 1021.1
20211208092921 64 162 0.0 0.9 0.00 0.00 0.00 93 1021.1
20211208092420 64 162 0.0 0.0 0.00 0.00 0.00 93 1021.0
20211208091920 65 162 0.0 0.9 0.00 0.00 0.00 93 1021.0
20211208091421 65 162 0.0 0.0 0.00 0.00 0.00 93 1021.0
20211208090921 65 162 0.9 0.9 0.00 0.00 0.00 92 1021.0
20211208090420 65 162 0.0 0.9 0.00 0.00 0.00 92 1020.9
20211208085921 65 161 0.0 0.9 0.00 0.00 0.00 92 1020.9
20211208084921 65 161 0.0 0.9 0.00 0.00 0.00 91 1020.9
20211208084420 66 161 0.0 1.7 0.00 0.00 0.00 91 1020.9
20211208083420 66 161 0.9 0.9 0.00 0.00 0.00 90 1020.8
20211208082921 66 161 0.0 0.9 0.00 0.00 0.00 90 1020.7
20211208081921 67 161 0.0 0.9 0.00 0.00 0.00 90 1020.6
20211208081422 67 161 0.9 1.7 0.00 0.00 0.00 89 1020.5
20211208080921 67 161 0.9 1.7 0.00 0.00 0.00 88 1020.5
20211208080420 67 161 0.9 1.7 0.00 0.00 0.00 88 1020.3
20211208075921 67 161 0.0 0.9 0.00 0.00 0.00 88 1020.4
20211208075420 68 161 0.0 0.9 0.00 0.00 0.00 87 1020.4
20211208074920 68 161 0.9 0.9 0.00 0.00 0.00 87 1020.3
20211208074421 68 161 0.9 1.7 0.00 0.00 0.00 86 1020.4
20211208073420 68 161 0.9 1.7 0.00 0.00 0.00 86 1020.3
20211208072921 69 161 0.9 2.6 0.00 0.00 0.00 85 1020.3
20211208072419 69 161 1.7 4.3 0.00 0.00 0.00 85 1020.2
20211208071922 69 157 1.7 2.6 0.00 0.00 0.00 84 1020.3
20211208070921 70 175 0.9 2.6 0.00 0.00 0.00 85 1020.4
20211208070420 71 192 1.7 2.6 0.00 0.00 0.00 84 1020.3
20211208065920 71 200 1.7 4.3 0.00 0.00 0.00 83 1020.3
20211208065419 71 240 1.7 2.6 0.00 0.00 0.00 82 1020.4
20211208064921 71 216 2.6 4.3 0.00 0.00 0.00 82 1020.4
20211208064420 71 253 2.6 5.2 0.00 0.00 0.00 83 1020.3
20211208063419 71 258 3.5 6.1 0.00 0.00 0.00 85 1020.4
20211208062921 71 250 2.6 6.1 0.00 0.00 0.00 85 1020.4
20211208062419 72 243 4.3 7.0 0.00 0.00 0.00 85 1020.3
20211208061921 73 225 4.3 7.8 0.00 0.00 0.00 85 1020.2
20211208060420 73 177 3.5 7.0 0.00 0.00 0.00 81 1020.2
20211208053922 74 249 6.1 8.7 0.00 0.00 0.00 76 1020.2
20211208053419 74 233 5.2 8.7 0.00 0.00 0.00 75 1020.2
20211208052920 74 236 6.1 10.4 0.00 0.00 0.00 77 1020.2
20211208052419 74 234 5.2 7.8 0.00 0.00 0.00 76 1020.2
20211208051920 74 215 4.3 8.7 0.00 0.00 0.00 75 1020.1
20211208051419 74 249 3.5 8.7 0.00 0.00 0.00 76 1020.1
20211208050919 74 203 6.1 8.7 0.00 0.00 0.00 75 1020.2
20211208045921 74 191 6.1 8.7 0.00 0.00 0.00 78 1020.2
20211208045423 75 195 5.2 7.8 0.00 0.00 0.00 78 1020.2
20211208044921 75 223 7.0 10.4 0.00 0.00 0.00 76 1020.3
20211208044419 75 251 4.3 7.0 0.00 0.00 0.00 78 1020.3
20211208043920 76 219 5.2 10.4 0.00 0.00 0.00 79 1020.3
20211208043419 76 180 6.1 8.7 0.00 0.00 0.00 80 1020.3
20211208042921 76 243 4.3 7.8 0.00 0.00 0.00 81 1020.4
20211208042420 77 238 7.0 10.4 0.00 0.00 0.00 80 1020.4
20211208041920 77 245 7.0 11.3 0.00 0.00 0.00 80 1020.4
20211208041419 77 267 8.7 11.3 0.00 0.00 0.00 78 1020.5
20211208040920 77 262 8.7 11.3 0.00 0.00 0.00 77 1020.4
20211208040420 78 265 8.7 11.3 0.00 0.00 0.00 76 1020.4
20211208035420 78 249 6.1 10.4 0.00 0.00 0.00 79 1020.4
20211208034919 78 247 8.7 11.3 0.00 0.00 0.00 76 1020.3
20211208034419 78 255 7.0 11.3 0.00 0.00 0.00 75 1020.3
20211208033922 78 257 8.7 11.3 0.00 0.00 0.00 75 1020.4
20211208032920 78 254 7.8 11.3 0.00 0.00 0.00 72 1020.5
20211208031920 78 250 7.0 10.4 0.00 0.00 0.00 77 1020.6
20211208031419 77 251 7.8 11.3 0.00 0.00 0.00 73 1020.6
20211208030920 77 261 7.0 12.2 0.00 0.00 0.00 79 1020.7
20211208030419 77 250 7.0 10.4 0.00 0.00 0.00 78 1020.8
20211208025920 77 210 6.1 12.2 0.00 0.00 0.00 81 1020.9
20211208025419 77 242 6.1 11.3 0.00 0.00 0.00 81 1020.9
20211208024920 77 219 6.1 11.3 0.00 0.00 0.00 82 1020.9
20211208023920 78 243 7.8 13.0 0.00 0.00 0.00 80 1021.1
20211208023419 78 255 8.7 12.2 0.00 0.00 0.00 81 1021.0
20211208022920 78 259 7.0 11.3 0.00 0.00 0.00 79 1021.1
20211208020920 77 252 9.6 13.9 0.00 0.00 0.00 82 1021.2
20211208020419 77 240 7.8 13.0 0.00 0.00 0.00 85 1021.2
20211208015419 77 243 10.4 13.0 0.00 0.00 0.00 84 1021.2
20211208014420 78 237 7.8 13.0 0.00 0.00 0.00 83 1021.4
20211208013420 77 253 7.8 13.0 0.00 0.00 0.00 81 1021.3
20211208012920 77 241 8.7 12.2 0.00 0.00 0.00 79 1021.3
20211208011420 77 209 9.6 13.0 0.00 0.00 0.00 77 1021.5
20211208010920 77 232 8.7 13.0 0.00 0.00 0.00 80 1021.6
20211208010419 78 234 10.4 13.9 0.00 0.00 0.00 78 1021.6
20211208005921 78 252 9.6 13.0 0.00 0.00 0.00 76 1021.6
20211208005420 78 256 7.8 14.8 0.00 0.00 0.00 77 1021.7
20211208004919 78 261 10.4 14.8 0.00 0.00 0.00 74 1021.7
20211208004421 78 266 10.4 13.9 0.00 0.00 0.00 75 1021.7
20211208002419 78 262 10.4 13.0 0.00 0.00 0.00 70 1021.8
20211208000919 78 278 10.4 13.0 0.00 0.00 0.00 71 1021.7
20211207235920 77 267 10.4 13.0 0.00 0.00 0.00 73 1021.6
20211207235419 78 267 7.8 12.2 0.00 0.00 0.00 75 1021.6
20211207234920 77 285 8.7 12.2 0.00 0.00 0.00 75 1021.6
20211207234420 77 278 8.7 12.2 0.00 0.00 0.00 76 1021.5
20211207233919 77 279 8.7 12.2 0.00 0.00 0.00 79 1021.5
20211207233418 77 267 8.7 12.2 0.00 0.00 0.00 77 1021.7
20211207232920 77 273 10.4 13.9 0.00 0.00 0.00 76 1021.7
20211207232419 77 272 8.7 12.2 0.00 0.00 0.00 78 1021.8
20211207231920 77 280 11.3 13.9 0.00 0.00 0.00 81 1021.8
20211207231418 77 277 11.3 13.9 0.00 0.00 0.00 77 1021.8
20211207224919 77 270 8.7 11.3 0.00 0.00 0.00 77 1021.8
20211207223418 76 276 7.8 10.4 0.00 0.00 0.00 78 1021.8
20211207222920 76 295 8.7 11.3 0.00 0.00 0.00 78 1021.8
20211207222419 76 270 7.8 11.3 0.00 0.00 0.00 80 1021.9
20211207221419 75 273 5.2 10.4 0.00 0.00 0.00 81 1021.9
20211207220419 75 287 7.0 8.7 0.00 0.00 0.00 78 1021.9
20211207215920 74 261 5.2 8.7 0.00 0.00 0.00 78 1021.9
20211207215418 74 273 7.0 10.4 0.00 0.00 0.00 79 1021.9
20211207214419 72 241 7.0 10.4 0.00 0.00 0.00 78 1022.1
20211207213419 70 263 7.0 8.7 0.00 0.00 0.00 81 1022.0
20211207212418 70 247 2.6 6.1 0.00 0.00 0.00 83 1022.2
20211207211919 70 270 5.2 7.0 0.00 0.00 0.00 82 1022.2
20211207210419 70 269 5.2 7.0 0.00 0.00 0.00 80 1022.1
20211207205920 70 271 6.1 8.7 0.00 0.00 0.00 80 1022.2
20211207204924 70 271 5.2 7.8 0.00 0.00 0.00 79 1022.2
20211207203922 70 148 2.6 6.1 0.00 0.00 0.00 81 1022.3
20211207203418 70 100 4.3 7.0 0.00 0.00 0.00 82 1022.3
20211207202418 70 139 1.7 4.3 0.00 0.00 0.00 82 1022.3
20211207201919 70 129 3.5 5.2 0.00 0.00 0.00 81 1022.4
20211207201419 70 147 1.7 4.3 0.00 0.00 0.00 80 1022.5
20211207200419 69 113 0.9 2.6 0.00 0.00 0.00 86 1022.6
20211207195418 68 123 1.7 2.6 0.00 0.00 0.00 91 1022.6
20211207194920 67 71 1.7 2.6 0.00 0.00 0.00 92 1022.6
20211207193419 68 76 1.7 2.6 0.00 0.00 0.00 93 1022.5
20211207192418 67 133 1.7 2.6 0.00 0.00 0.00 98 1022.4
20211207191920 67 123 1.7 2.6 0.00 0.00 0.00 98 1022.4
20211207190418 67 120 1.7 2.6 0.00 0.00 0.00 100 1022.3
20211207185919 67 112 0.9 0.9 0.00 0.00 0.00 100 1022.4
20211207185418 67 110 0.9 1.7 0.00 0.00 0.00 100 1022.4
20211207183419 65 109 0.9 1.7 0.00 0.00 0.00 100 1022.3
20211207182919 65 109 0.0 0.0 0.00 0.00 0.00 100 1022.3
20211207182419 65 108 0.0 0.0 0.00 0.00 0.00 100 1022.4
20211207181919 64 108 0.0 0.0 0.00 0.00 0.00 100 1022.3
20211207181418 64 109 0.0 0.0 0.00 0.00 0.00 100 1022.3
20211207180418 64 109 0.0 0.9 0.00 0.00 0.00 100 1022.1
20211207174418 64 106 2.6 2.6 0.00 0.00 0.00 99 1022.1
20211207173919 64 110 1.7 2.6 0.00 0.00 0.00 99 1022.1
20211207172418 64 107 4.3 5.2 0.00 0.00 0.00 99 1022.3
20211207171919 64 107 3.5 5.2 0.00 0.00 0.00 99 1022.3
20211207171420 64 107 3.5 5.2 0.00 0.00 0.00 98 1022.3